Вернуться в каталог

SL-14 DEB

АктивенPO
NORAD 27639·DEBRIS·🇷🇺 Russia

Запущен Aug 18, 1987 с Plesetsk Cosmodrome

Loading…

Ближайшие Пролёты (ближайшие 24 часа)

TLE

СвежийSource: Space-Track

Эпоха: Sep 13, 2026, 01:47 UTC

1 27639U 87068CM  26256.07443591  .00000124  00000-0  11948-3 0  9993
2 27639  82.5125   2.5288 0065503 241.4962 295.3121 13.72317083653242

Отслеживайте SL-14 DEB в реальном времени с AllMySat

Download on the App Store